Temperature
13 13 13 13 12 11 11 12 12 13 14 16 18 18 17 18 19 20 23 23 22 21 20 18 17 16 16 16 16 16 17 17 17 16 16 16 16 16 16 15 15 15 15 15 14 14 14 14 14
12 13 13 12 11 11 12 11 13 14 16 17 18 19 18 19 21 22 23 23 22 20 19 18 17 16 16 16 16 16 16 16 16 16 16 16 16 15 15 15 15 15 14 14 14 13 13 13 13
12 12 12 11 10 12 13 12 13 15 17 17 17 18 19 20 21 22 23 23 21 19 18 17 16 16 16 16 16 16 16 16 16 16 16 16 15 15 15 15 14 14 14 14 13 13 13 12 13
11 11 11 10 11 12 13 13 13 14 16 17 17 17 19 20 21 22 22 22 21 19 18 17 16 16 16 16 16 16 16 16 16 16 15 15 15 15 14 14 14 14 14 13 13 12 12 12 12
11 11 10 11 11 12 12 14 15 15 15 17 17 16 18 20 21 21 21 21 20 19 17 16 16 16 16 16 16 16 16 15 15 15 15 15 15 14 14 14 14 13 13 13 12 12 12 12 12
10 10 10 11 12 12 12 14 15 14 14 16 16 16 19 20 20 20 20 20 19 18 17 16 16 16 16 16 15 15 15 15 15 15 14 14 14 14 14 14 13 13 13 12 12 12 12 12 12
9 10 10 11 12 12 13 14 14 14 13 15 17 16 18 20 20 20 19 18 17 16 16 16 16 16 16 15 15 15 15 15 15 14 14 14 14 13 13 13 13 12 12 12 12 11 11 12 12
9 9 10 10 11 12 14 15 15 15 15 16 17 16 17 19 19 18 18 16 16 15 15 15 15 15 15 15 15 15 15 15 14 14 14 14 14 13 13 13 12 12 12 12 12 11 11 11 12
8 8 10 10 11 12 14 14 15 16 16 16 17 17 18 18 18 17 16 15 15 14 15 15 15 15 15 15 15 15 14 14 14 14 14 13 13 13 13 12 12 12 11 11 11 11 11 11 12
8 8 10 11 11 12 13 13 14 15 14 15 16 17 17 17 16 15 15 15 14 14 14 15 15 15 15 15 15 14 14 14 14 13 13 13 13 13 12 12 12 12 11 11 11 11 11 11 11
7 8 9 10 11 12 12 12 13 13 13 14 15 16 16 16 15 15 15 15 15 15 14 15 15 15 15 15 14 14 14 14 13 13 13 13 13 12 12 12 12 11 11 11 11 11 11 11 11
7 7 8 9 10 10 11 11 12 12 13 15 15 16 16 15 14 15 15 15 14 14 14 14 15 15 15 14 14 14 14 13 13 13 13 13 13 12 12 12 12 12 11 11 11 11 11 11 11
6 7 8 8 9 9 10 10 11 12 13 14 14 15 15 15 15 15 15 14 14 14 14 14 14 14 14 14 14 14 14 13 13 13 13 13 13 12 12 12 12 12 11 11 11 11 11 10 10
6 6 7 7 8 8 9 10 10 11 12 13 13 14 14 15 15 14 14 14 14 14 14 14 14 14 14 14 14 14 13 13 13 13 13 12 12 12 12 12 12 11 11 11 11 10 10 10 10
6 5 6 7 8 8 9 9 10 11 12 12 13 13 14 14 14 14 14 14 14 14 14 14 14 14 14 14 14 13 13 13 13 13 13 12 12 12 12 12 12 11 11 10 10 10 10 10 10
5 5 5 7 8 8 8 8 10 11 11 11 12 13 13 14 14 14 14 14 14 14 14 14 14 14 14 14 14 13 13 13 13 13 12 12 12 12 12 12 11 11 11 10 10 10 10 10 10
4 4 4 6 7 8 7 7 9 10 11 11 12 12 13 13 13 14 14 14 14 14 14 14 13 14 14 14 13 13 13 13 13 13 12 12 12 12 12 11 11 11 11 10 10 10 10 10 10
3 3 4 5 6 7 6 7 8 10 10 10 11 11 12 13 13 14 14 14 14 14 14 14 13 13 13 13 13 13 13 13 13 12 12 12 12 12 11 11 11 11 10 10 10 10 10 9 9
4 3 4 5 6 6 6 6 7 9 9 9 10 11 11 13 14 14 14 14 14 14 13 14 13 13 13 13 13 13 13 13 12 12 12 12 12 12 11 11 11 11 11 10 10 10 9 9 9
3 3 3 4 6 6 6 6 7 8 9 9 10 10 11 12 13 13 14 14 14 14 14 13 13 13 13 13 13 13 13 13 12 12 12 12 12 12 12 11 11 11 10 10 10 10 10 9 9
3 3 3 4 5 5 5 5 7 8 9 9 10 10 11 11 12 13 13 14 14 14 14 14 14 13 13 13 13 12 12 12 12 12 12 12 12 12 12 11 11 11 11 10 10 10 10 10 9
3 4 4 4 4 4 5 4 6 7 8 8 9 10 10 11 12 13 13 14 14 14 14 14 14 14 13 13 13 13 12 13 13 13 13 13 12 12 12 11 11 11 11 11 10 10 10 10 9
3 4 4 4 3 3 4 4 5 6 7 8 8 9 10 11 11 12 13 14 14 14 14 14 14 14 13 13 13 13 13 13 13 13 13 13 12 12 12 12 11 11 11 11 10 10 10 10 10
3 3 3 3 3 3 4 4 4 5 7 8 8 9 10 10 11 12 13 13 14 14 14 14 14 14 13 13 13 13 13 13 13 13 13 13 13 12 12 12 11 11 11 11 11 10 10 10 10
3 2 2 2 2 2 4 4 4 5 6 7 8 9 9 10 10 11 12 13 13 14 14 14 14 14 14 13 13 13 14 14 14 14 14 13 13 13 13 12 12 12 11 11 11 10 10 10 10
2 2 2 2 3 3 4 4 4 5 6 7 7 8 8 9 10 10 11 12 13 13 14 14 14 14 14 14 14 14 14 14 14 14 14 14 14 14 14 13 13 12 12 11 11 10 10 10 10
2 2 2 2 2 3 4 4 5 5 5 5 5 6 6 7 8 9 10 11 12 13 14 14 14 14 14 14 14 14 14 14 14 14 14 14 14 14 14 13 13 12 12 11 11 11 10 10 10
2 1 1 2 2 3 3 4 4 4 4 5 5 5 5 6 7 8 9 10 11 13 13 14 14 14 14 14 14 14 14 14 14 14 14 14 14 14 14 13 13 12 12 11 11 11 11 10 10
1 1 1 1 2 2 3 4 4 3 4 4 4 4 5 5 5 6 8 9 10 11 13 14 14 14 14 14 14 14 14 14 14 14 14 14 14 14 14 13 13 13 12 12 11 11 11 10 10
0 -0 0 0 0 1 2 3 3 3 3 3 3 4 4 4 5 6 7 8 9 10 11 13 13 13 14 14 14 14 14 13 13 13 14 14 14 13 13 13 13 13 12 12 12 11 11 11 10
Wind_Speed
5 2 3 3 2 3 10 9 6 6 6 6 5 6 8 9 7 6 2 10 11 16 20 25 27 27 26 25 24 24 24 23 23 22 22 21 21 20 19 19 19 18 18 18 18 19 19 19 18
1 3 3 3 5 11 10 9 11 10 7 1 3 5 5 9 6 4 2 9 13 16 18 22 27 27 27 26 25 25 24 23 23 22 22 21 20 20 19 19 19 19 19 18 18 19 18 18 17
1 2 4 4 9 16 11 7 14 12 9 4 3 4 6 7 5 5 5 11 13 15 16 21 27 28 27 27 26 25 24 24 23 22 21 21 20 19 19 19 19 19 19 18 18 18 17 17 17
1 1 3 9 21 18 10 4 5 5 7 7 5 7 6 5 4 4 7 13 16 15 15 21 28 28 27 27 26 25 25 24 23 22 21 20 20 19 19 19 19 19 19 18 17 17 16 16 16
1 3 8 16 25 14 9 6 3 4 4 3 5 6 7 4 1 5 11 14 17 16 14 21 27 28 27 27 26 25 25 24 23 22 21 20 20 20 19 19 19 19 18 17 17 16 15 15 16
3 5 12 23 25 13 9 8 7 8 6 4 4 5 7 3 2 7 11 13 13 15 14 19 27 27 27 27 26 26 25 24 23 22 22 21 21 20 20 19 18 18 17 17 16 15 15 15 15
5 8 17 19 19 14 10 8 10 11 12 9 5 4 7 4 3 7 10 10 10 12 12 14 20 24 26 27 26 26 25 24 23 23 22 21 21 20 20 19 18 17 16 16 16 15 14 15 15
4 6 16 18 18 16 7 8 10 13 13 6 7 7 8 4 5 8 9 9 9 10 11 12 13 18 20 23 25 25 24 23 23 22 21 20 20 20 19 19 18 17 16 16 15 14 14 14 14
3 11 21 20 15 9 5 8 8 8 8 7 7 7 5 5 10 11 10 10 12 13 11 11 12 14 16 19 22 24 24 23 22 20 21 20 17 17 17 18 18 17 16 15 15 14 13 13 13
7 17 25 13 8 7 7 9 7 5 9 9 7 5 2 9 13 16 17 19 19 19 16 13 13 14 14 15 17 18 18 19 18 18 18 16 15 15 16 18 17 16 15 15 14 13 13 12 11
8 15 14 13 10 9 11 10 8 9 13 11 9 6 6 11 14 17 19 20 21 20 18 16 15 14 14 11 12 11 13 14 16 18 18 16 15 14 14 13 13 13 13 11 12 12 11 11 10
9 14 13 12 11 12 13 11 11 14 15 8 8 7 10 14 17 19 20 19 17 18 18 16 15 14 14 12 11 10 9 10 11 15 18 15 10 9 9 8 10 10 10 10 11 10 9 9 9
12 13 14 14 14 14 15 15 15 17 13 10 8 7 12 16 17 17 17 17 17 19 19 17 16 16 14 13 11 11 10 11 13 15 17 17 10 8 8 8 9 10 11 10 8 8 7 7 7
8 11 13 14 16 14 17 18 16 19 10 10 10 10 12 15 17 16 16 17 18 19 19 17 17 17 15 13 12 11 11 12 13 14 16 18 15 11 9 8 8 8 10 10 8 7 6 5 5
7 11 14 13 14 11 12 18 21 19 10 12 13 12 12 14 15 17 18 19 20 19 18 18 18 17 17 15 14 11 11 13 11 13 17 18 17 14 11 8 7 8 11 11 8 7 6 4 4
5 7 10 9 9 9 10 20 16 9 11 15 14 12 12 13 14 15 16 16 17 17 18 18 17 18 18 15 14 11 12 12 11 13 16 17 18 17 12 8 7 10 11 9 6 4 4 3 3
5 8 10 10 8 6 10 14 10 8 11 14 12 12 12 12 12 13 15 16 17 18 19 19 18 19 18 16 13 12 12 12 12 13 14 16 17 18 13 9 9 12 9 6 5 3 4 4 3
7 8 9 10 5 8 13 16 13 10 11 12 11 10 11 13 14 12 14 15 16 17 17 18 17 18 17 14 12 11 11 11 11 12 13 17 17 18 14 10 10 11 7 5 5 5 3 3 4
11 12 14 15 11 11 15 18 17 13 12 13 12 11 12 14 13 10 13 14 15 16 18 19 19 18 16 15 14 14 14 12 11 10 14 17 17 18 14 9 9 9 8 8 8 5 5 3 3
13 14 15 14 10 9 13 18 17 15 15 14 14 13 13 13 11 10 12 13 16 18 19 20 20 19 19 16 14 11 11 9 10 10 12 17 17 18 15 11 10 9 8 8 8 6 5 3 4
13 12 12 12 12 9 10 12 12 12 13 13 12 12 12 14 13 11 11 14 15 17 19 19 21 21 20 16 12 10 8 8 9 11 12 14 17 17 15 14 11 11 10 10 9 9 8 5 3
13 9 13 14 9 6 4 8 8 8 10 11 11 11 11 12 12 10 11 13 15 18 18 19 21 21 20 18 16 18 15 13 12 12 11 13 15 16 16 16 14 12 10 10 10 9 6 7 5
9 9 10 11 9 9 6 7 8 5 8 10 11 10 10 10 11 10 11 13 13 15 16 18 19 21 21 20 20 20 15 12 9 10 12 14 13 14 16 16 14 13 11 11 11 10 8 7 6
7 6 7 6 5 8 9 7 7 4 6 7 8 8 9 9 10 10 9 10 11 12 13 15 18 19 20 22 22 21 19 15 14 14 15 13 11 12 15 15 14 13 11 12 11 12 12 9 8
3 3 2 2 3 6 5 6 7 5 5 5 6 6 6 7 8 8 8 9 11 12 14 15 18 19 20 22 23 22 21 19 19 17 16 14 12 12 16 15 14 13 12 12 11 12 11 11 10
5 3 3 3 4 4 4 7 4 4 5 5 5 5 5 5 5 5 6 8 10 13 15 16 18 19 20 21 22 20 19 16 15 16 15 16 14 14 14 15 14 13 13 12 12 10 11 10 11
4 3 3 3 4 4 4 4 4 5 8 8 9 9 8 8 6 4 4 5 7 10 13 16 17 18 19 21 21 19 19 17 16 15 14 14 11 11 14 16 15 13 13 13 13 10 11 11 11
2 3 2 2 3 5 4 3 3 6 8 9 10 10 10 10 8 7 4 4 4 6 9 13 16 17 17 19 19 16 18 18 15 13 15 15 14 13 15 16 15 14 14 14 13 11 11 12 11
3 2 2 3 3 3 3 2 2 3 5 7 8 9 10 10 9 8 7 5 3 3 5 8 12 15 15 16 17 16 17 17 15 14 16 14 13 14 16 16 16 15 15 14 14 13 12 13 12
2 1 1 2 5 4 3 4 3 5 8 9 10 11 11 10 10 9 7 6 4 3 3 5 8 11 13 15 16 17 15 15 16 15 14 14 14 14 14 15 15 15 15 15 15 15 14 14 14
Wind_Direction
287 105 89 74 87 231 234 225 208 212 217 215 191 185 195 196 182 216 291 156 152 159 167 168 166 164 162 159 155 150 148 145 142 140 138 136 134 132 131 128 126 123 121 118 116 114 113 110 107
229 122 86 109 189 227 240 212 213 215 207 190 208 211 225 243 235 245 191 166 156 161 165 166 165 163 162 160 155 152 149 146 144 141 140 139 138 136 133 130 126 124 122 119 117 116 114 112 110
322 146 155 176 214 224 227 204 218 225 235 252 260 236 220 234 229 222 200 163 155 162 165 167 165 163 162 160 157 154 151 149 146 144 142 142 141 138 135 131 127 125 123 121 120 119 117 116 114
95 135 186 217 231 227 218 195 198 218 239 227 218 266 254 243 231 209 166 160 158 164 165 167 165 164 163 161 158 156 154 151 149 148 146 145 143 140 136 132 129 127 126 124 123 122 121 120 116
90 185 220 233 238 234 222 226 210 205 224 202 189 253 269 287 234 156 157 165 164 165 166 167 165 165 164 162 160 159 157 154 152 150 150 148 146 141 137 134 132 131 129 128 128 125 124 122 119
209 203 224 235 240 235 225 213 233 247 247 244 211 239 258 300 169 164 161 167 167 165 165 167 167 165 165 163 162 160 159 156 155 153 153 151 147 143 140 139 137 135 134 134 132 130 129 126 121
213 221 233 241 248 243 227 195 214 233 247 236 205 242 277 287 198 157 155 158 163 165 164 166 168 166 164 162 161 161 160 158 156 156 154 151 149 147 145 142 141 139 137 138 136 133 132 130 125
215 240 243 240 244 248 221 206 211 215 240 224 188 214 247 248 146 139 143 153 163 169 169 166 164 163 162 162 161 160 159 158 158 156 151 149 149 149 147 144 144 143 141 140 138 135 135 132 127
214 238 241 237 239 248 205 223 228 220 226 223 215 219 244 138 141 147 153 165 174 177 175 169 165 161 159 160 162 159 158 159 157 152 149 146 146 145 144 145 147 146 145 144 140 137 133 127 125
210 239 244 248 249 255 248 240 237 234 241 241 245 252 212 151 161 171 175 179 182 184 181 175 170 163 159 161 160 159 158 158 153 150 147 142 140 139 142 146 148 148 148 145 140 135 126 114 111
223 245 261 265 267 269 268 264 252 236 245 235 231 226 187 181 181 186 188 187 187 185 182 178 173 166 162 159 158 157 156 154 149 147 144 142 137 137 140 142 144 142 140 132 125 113 113 115 115
250 257 264 273 280 277 271 270 262 245 246 243 236 221 192 196 197 196 195 193 189 187 185 179 173 168 164 159 159 157 156 154 152 151 148 146 141 139 139 134 133 131 127 117 113 113 116 118 121
255 265 267 274 282 279 276 266 264 260 259 268 262 232 206 204 206 205 201 196 190 190 186 180 175 171 166 161 161 162 160 159 156 154 155 154 150 148 143 139 136 134 133 127 122 120 122 121 121
260 276 281 275 271 272 268 265 259 258 254 256 255 243 223 213 210 207 201 197 195 193 189 181 178 173 168 167 165 165 162 159 157 159 161 159 156 155 151 146 143 143 144 141 136 134 131 128 127
273 280 280 264 254 253 266 264 248 252 247 249 249 244 235 224 216 211 204 199 196 194 189 185 181 175 172 168 166 165 163 162 163 163 164 163 161 160 157 154 153 154 151 142 132 124 122 120 121
270 266 263 259 247 244 236 257 257 250 240 245 246 243 237 231 221 215 209 203 197 193 190 188 185 179 176 172 167 167 167 166 167 166 168 167 166 165 161 161 161 159 152 145 136 132 124 125 131
240 249 259 277 242 241 233 261 273 254 244 246 244 242 238 236 231 220 210 204 197 194 191 189 187 183 180 174 170 168 168 170 170 169 172 172 170 169 167 168 165 160 153 149 149 136 137 144 149
251 256 266 269 279 280 268 270 279 267 250 249 251 249 244 236 232 220 211 205 199 194 192 190 188 185 180 173 168 167 169 172 173 175 176 175 175 173 170 169 166 163 157 157 152 141 131 139 145
264 275 278 280 288 283 271 274 278 268 257 253 248 247 247 242 234 219 211 202 197 195 192 192 190 186 182 181 180 179 182 179 178 180 178 178 178 176 175 173 168 169 171 170 159 142 140 131 129
262 269 275 285 281 276 275 275 270 261 251 244 241 240 244 248 242 223 209 201 198 196 195 193 193 189 188 190 186 183 175 177 177 177 181 182 181 180 182 175 176 175 171 168 168 152 144 145 156
263 254 261 272 291 275 274 279 259 253 244 242 235 235 240 242 240 227 212 203 198 199 198 196 194 192 191 186 177 168 161 162 176 185 187 186 184 184 184 182 177 178 178 182 180 171 160 162 181
273 263 262 267 275 273 245 280 272 255 253 242 237 231 234 240 238 227 214 208 202 202 201 198 196 194 191 186 184 181 185 190 191 186 186 183 185 186 185 183 182 182 184 182 184 181 172 159 172
265 283 275 263 258 268 244 254 278 259 254 247 237 229 231 234 234 229 216 211 207 202 199 200 196 195 192 190 190 190 195 194 176 174 178 183 186 188 188 186 185 186 187 186 184 181 182 178 173
282 290 275 254 238 253 230 218 274 242 249 262 244 236 233 232 233 232 221 211 207 203 199 196 196 196 193 192 194 195 196 188 177 180 185 187 188 190 190 188 189 189 189 188 187 187 188 191 184
300 313 309 290 234 248 219 212 250 263 273 273 272 266 252 241 234 233 222 210 207 202 199 196 196 198 194 195 197 199 198 193 190 188 189 187 188 193 195 191 191 190 190 188 185 188 193 193 193
288 252 233 260 257 278 233 228 254 282 296 322 329 330 329 298 259 242 229 217 212 206 201 197 198 200 196 196 199 199 197 197 199 193 191 192 196 196 188 191 191 189 186 187 187 191 195 196 200
296 268 255 278 287 276 249 268 298 349 360 1 0 0 349 337 319 295 264 233 223 212 204 199 200 201 198 198 200 199 198 199 200 195 192 194 192 186 183 188 189 188 187 187 186 196 197 197 203
265 296 313 265 273 270 262 260 311 346 355 356 359 355 348 347 342 330 310 273 246 225 210 201 200 200 199 199 200 200 200 201 199 192 194 195 188 181 182 186 189 188 189 189 190 195 196 198 203
331 336 314 287 270 279 293 296 349 359 358 353 346 344 345 348 344 338 331 310 278 250 215 203 203 201 199 198 199 199 200 198 195 197 198 194 185 183 184 186 188 189 191 191 194 198 194 201 204
221 253 270 290 294 283 285 284 334 9 5 357 351 349 349 349 346 342 340 342 333 302 255 212 206 204 202 199 197 198 197 194 195 199 198 192 187 186 186 184 188 191 192 192 196 199 198 201 205
Height
1489 1491 1493 1495 1498 1500 1492 1483 1478 1475 1473 1469 1469 1470 1470 1470 1472 1472 1461 1459 1461 1465 1469 1474 1480 1485 1489 1493 1497 1500 1504 1507 1510 1512 1515 1517 1519 1521 1523 1525 1526 1528 1529 1531 1532 1533 1534 1535 1536
1487 1489 1492 1493 1496 1495 1482 1473 1472 1467 1465 1465 1466 1466 1466 1464 1462 1460 1457 1457 1460 1464 1468 1473 1478 1483 1488 1492 1496 1500 1503 1506 1509 1512 1514 1517 1519 1521 1523 1525 1526 1528 1530 1531 1532 1533 1535 1536 1536
1484 1486 1488 1488 1486 1474 1468 1465 1462 1461 1463 1464 1464 1463 1463 1460 1458 1457 1457 1457 1459 1463 1468 1472 1478 1483 1487 1492 1496 1499 1503 1506 1509 1512 1514 1517 1519 1521 1523 1525 1526 1528 1529 1531 1532 1534 1535 1536 1537
1481 1484 1484 1481 1468 1458 1458 1459 1458 1460 1461 1462 1463 1461 1458 1457 1456 1455 1455 1456 1458 1462 1467 1471 1477 1482 1487 1491 1495 1499 1502 1505 1508 1511 1514 1517 1519 1521 1523 1525 1526 1528 1529 1531 1532 1534 1535 1537 1538
1479 1479 1478 1469 1455 1452 1454 1456 1458 1458 1459 1458 1460 1458 1455 1454 1453 1453 1453 1454 1457 1461 1466 1471 1476 1481 1486 1490 1494 1498 1501 1505 1508 1511 1514 1516 1519 1521 1522 1524 1526 1528 1529 1531 1533 1534 1536 1537 1538
1476 1473 1470 1456 1447 1449 1451 1454 1457 1457 1456 1457 1457 1456 1452 1451 1451 1451 1452 1453 1457 1460 1465 1471 1476 1481 1485 1489 1493 1497 1501 1504 1507 1511 1513 1516 1518 1520 1522 1524 1526 1528 1529 1531 1533 1534 1536 1537 1539
1471 1467 1457 1451 1447 1447 1448 1451 1453 1453 1453 1453 1455 1454 1449 1449 1450 1450 1451 1453 1457 1461 1465 1470 1475 1480 1485 1489 1492 1496 1500 1503 1507 1510 1513 1515 1518 1520 1522 1524 1526 1527 1529 1531 1533 1534 1536 1538 1539
1465 1464 1452 1448 1446 1443 1445 1447 1446 1449 1448 1450 1452 1450 1448 1448 1448 1448 1451 1454 1457 1462 1466 1469 1474 1479 1483 1487 1492 1495 1499 1503 1506 1509 1512 1515 1517 1519 1521 1523 1525 1527 1529 1531 1533 1535 1536 1538 1539
1462 1460 1444 1441 1443 1443 1443 1443 1443 1444 1444 1445 1446 1446 1446 1446 1446 1447 1450 1453 1457 1461 1465 1469 1472 1477 1481 1486 1490 1494 1498 1502 1505 1508 1511 1514 1516 1519 1521 1523 1525 1527 1529 1531 1533 1535 1537 1538 1540
1457 1449 1437 1439 1441 1441 1441 1440 1441 1441 1440 1440 1441 1442 1443 1443 1444 1445 1446 1449 1453 1457 1461 1466 1470 1474 1479 1484 1488 1493 1496 1500 1503 1506 1510 1513 1515 1518 1520 1523 1525 1527 1529 1531 1533 1535 1537 1538 1540
1449 1443 1439 1439 1439 1439 1438 1438 1438 1437 1435 1435 1436 1437 1439 1440 1440 1442 1443 1445 1447 1452 1457 1462 1467 1472 1477 1481 1486 1490 1494 1498 1501 1505 1508 1511 1514 1517 1519 1522 1524 1526 1528 1530 1532 1534 1536 1538 1540
1446 1440 1439 1438 1438 1437 1436 1435 1434 1432 1429 1432 1434 1434 1435 1436 1436 1438 1440 1442 1446 1450 1454 1459 1464 1469 1474 1478 1482 1487 1491 1495 1499 1502 1506 1509 1512 1515 1518 1521 1523 1525 1527 1530 1532 1534 1537 1538 1540
1443 1438 1437 1437 1436 1435 1433 1431 1430 1425 1427 1429 1429 1430 1430 1431 1432 1434 1437 1440 1443 1447 1451 1456 1461 1465 1470 1475 1480 1484 1488 1492 1497 1500 1504 1508 1511 1514 1517 1519 1522 1525 1527 1529 1532 1534 1536 1538 1540
1439 1437 1435 1433 1432 1431 1429 1425 1425 1417 1423 1424 1424 1424 1425 1426 1428 1430 1434 1437 1440 1443 1447 1452 1457 1462 1467 1471 1476 1481 1485 1490 1494 1498 1502 1506 1509 1512 1515 1518 1521 1524 1526 1529 1531 1534 1536 1538 1540
1438 1436 1431 1427 1426 1426 1426 1419 1414 1413 1418 1418 1418 1419 1421 1422 1423 1425 1428 1431 1435 1439 1444 1448 1453 1459 1463 1468 1473 1478 1482 1487 1492 1496 1500 1504 1507 1511 1514 1517 1519 1522 1525 1528 1530 1533 1535 1537 1539
1437 1435 1431 1423 1422 1421 1425 1413 1407 1410 1413 1412 1413 1414 1415 1416 1418 1421 1424 1427 1431 1436 1440 1445 1450 1455 1460 1465 1470 1475 1480 1484 1489 1493 1497 1501 1505 1509 1512 1515 1518 1521 1524 1527 1529 1532 1534 1537 1539
1436 1434 1429 1422 1418 1417 1418 1409 1405 1406 1407 1406 1407 1408 1409 1411 1413 1416 1419 1423 1427 1432 1436 1441 1446 1450 1456 1461 1467 1472 1477 1481 1486 1490 1495 1498 1502 1506 1509 1513 1516 1519 1522 1525 1528 1530 1533 1535 1538
1434 1431 1426 1422 1417 1416 1413 1408 1404 1403 1402 1401 1402 1403 1404 1405 1406 1410 1414 1418 1422 1428 1433 1437 1442 1447 1452 1458 1463 1468 1473 1477 1482 1487 1491 1495 1499 1503 1507 1511 1514 1517 1520 1523 1526 1529 1532 1534 1537
1431 1429 1426 1419 1415 1415 1410 1405 1401 1399 1398 1397 1397 1397 1398 1399 1401 1405 1408 1412 1417 1422 1427 1432 1437 1442 1447 1452 1457 1462 1467 1472 1477 1482 1487 1492 1496 1500 1504 1507 1511 1514 1517 1521 1524 1527 1529 1532 1535
1429 1428 1424 1417 1413 1411 1407 1401 1396 1393 1392 1391 1391 1392 1393 1394 1396 1399 1402 1406 1410 1415 1421 1426 1432 1437 1442 1446 1451 1457 1463 1468 1473 1478 1483 1488 1492 1496 1500 1504 1507 1511 1514 1518 1521 1524 1527 1529 1532
1425 1424 1421 1418 1412 1408 1407 1399 1391 1385 1384 1384 1385 1386 1388 1389 1390 1393 1396 1400 1404 1409 1414 1420 1425 1431 1436 1442 1448 1454 1460 1465 1469 1473 1477 1482 1487 1492 1496 1500 1504 1508 1511 1514 1518 1521 1524 1526 1529
1421 1416 1414 1413 1414 1411 1407 1403 1388 1382 1379 1378 1378 1379 1381 1383 1385 1387 1390 1394 1398 1402 1408 1414 1419 1425 1430 1436 1441 1446 1450 1454 1459 1465 1471 1477 1482 1487 1492 1496 1500 1504 1507 1511 1514 1518 1521 1524 1526
1418 1413 1412 1410 1412 1412 1405 1407 1389 1380 1377 1374 1373 1373 1375 1378 1380 1382 1384 1387 1392 1396 1401 1407 1413 1419 1425 1430 1435 1440 1445 1450 1456 1462 1467 1472 1477 1482 1487 1491 1496 1499 1503 1507 1511 1514 1517 1520 1522
1416 1413 1410 1408 1410 1410 1401 1403 1392 1382 1375 1370 1369 1369 1370 1372 1374 1377 1380 1383 1387 1391 1395 1400 1406 1412 1418 1424 1429 1434 1439 1444 1450 1455 1461 1466 1471 1476 1481 1486 1490 1494 1498 1502 1506 1510 1513 1516 1519
1416 1417 1417 1415 1414 1408 1394 1394 1387 1376 1372 1370 1368 1367 1367 1369 1370 1372 1374 1378 1381 1385 1390 1394 1400 1406 1412 1417 1423 1427 1433 1438 1443 1449 1455 1460 1464 1469 1474 1479 1484 1488 1493 1497 1502 1505 1508 1511 1514
1419 1418 1420 1416 1408 1399 1390 1387 1382 1374 1370 1369 1367 1366 1365 1366 1366 1367 1369 1373 1376 1380 1384 1388 1393 1399 1405 1410 1415 1421 1427 1432 1438 1443 1448 1453 1458 1463 1469 1474 1479 1483 1488 1492 1496 1500 1503 1507 1509
1419 1416 1414 1413 1408 1402 1390 1384 1379 1373 1371 1369 1368 1366 1366 1364 1364 1364 1365 1368 1371 1374 1377 1382 1387 1392 1398 1403 1409 1414 1420 1425 1431 1436 1442 1448 1453 1458 1464 1469 1474 1478 1483 1487 1491 1494 1498 1501 1504
1420 1418 1417 1415 1411 1401 1391 1386 1384 1378 1376 1373 1371 1369 1367 1364 1363 1362 1362 1363 1365 1368 1372 1376 1381 1386 1391 1396 1402 1408 1413 1419 1425 1430 1436 1441 1447 1452 1458 1463 1468 1472 1477 1481 1485 1488 1492 1496 1498
1423 1421 1419 1417 1411 1405 1393 1389 1383 1381 1378 1376 1374 1371 1368 1365 1363 1361 1359 1360 1361 1363 1366 1370 1375 1380 1385 1390 1395 1401 1407 1412 1418 1424 1429 1435 1440 1446 1451 1456 1461 1466 1470 1475 1479 1482 1486 1489 1492
1423 1424 1423 1423 1418 1412 1404 1397 1384 1382 1380 1378 1375 1372 1370 1367 1363 1361 1358 1357 1358 1359 1361 1364 1368 1373 1378 1383 1389 1394 1400 1406 1412 1417 1423 1429 1434 1440 1445 1450 1455 1460 1464 1468 1472 1476 1479 1483 1485